DW5330 Weather Reports


Display with metric or nautical units.
time (UTC)temp
F
wind
direction
speed
MPH
gust
MPH
rain 1hr
in
rain 24hr
in
rain mn
in
humidity
%
barometer
mb
20260509224005 62 183 1.0 3.0 0.00 0.00 0.00 69 1028.4
20260509223005 61 176 1.0 3.0 0.00 0.00 0.00 68 1028.3
20260509222006 60 300 2.0 5.0 0.00 0.00 0.00 69 1028.2
20260509221005 60 178 0.0 2.0 0.00 0.00 0.00 70 1028.2
20260509215005 58 122 0.0 2.0 0.00 0.00 0.00 72 1028.1
20260509214505 58 143 1.0 2.0 0.00 0.00 0.00 73 1028.0
20260509214005 58 144 1.0 3.0 0.00 0.00 0.00 74 1028.0
20260509213505 58 258 1.0 5.0 0.00 0.00 0.00 74 1027.9
20260509212005 56 157 1.0 2.0 0.00 0.00 0.00 77 1027.7
20260509211505 56 120 1.0 3.0 0.00 0.00 0.00 78 1027.6
20260509211005 56 222 1.0 3.0 0.00 0.00 0.00 79 1027.5
20260509210505 55 223 2.0 3.0 0.00 0.00 0.00 80 1027.5
20260509205005 55 232 1.0 2.0 0.00 0.00 0.00 81 1027.3
20260509204504 55 203 1.0 2.0 0.00 0.00 0.00 81 1027.2
20260509204005 55 152 1.0 3.0 0.00 0.00 0.00 81 1027.1
20260509203505 55 183 1.0 3.0 0.00 0.00 0.00 81 1027.1
20260509193505 56 211 1.0 2.0 0.00 0.00 0.00 79 1026.5
20260509191004 56 132 1.0 2.0 0.00 0.00 0.00 80 1026.2
20260509190505 56 154 0.0 2.0 0.00 0.00 0.00 80 1026.1
20260509185504 56 173 1.0 2.0 0.00 0.00 0.00 80 1026.0
20260509184005 56 222 0.0 2.0 0.00 0.00 0.00 80 1026.0
20260509183005 56 148 0.0 2.0 0.00 0.00 0.00 79 1025.8
20260509182504 56 222 0.0 2.0 0.00 0.00 0.00 79 1025.8
20260509181505 56 238 0.0 1.0 0.00 0.00 0.00 79 1025.7
20260509180005 56 299 0.0 3.0 0.00 0.00 0.00 79 1025.7
20260509175504 56 262 0.0 2.0 0.00 0.00 0.00 79 1025.7
20260509175005 56 165 0.0 2.0 0.00 0.00 0.00 79 1025.6
20260509174504 56 186 0.0 1.0 0.00 0.00 0.00 79 1025.6
20260509174005 56 191 1.0 2.0 0.00 0.00 0.00 79 1025.6
20260509173004 56 245 1.0 2.0 0.00 0.00 0.00 80 1025.6
20260509172504 56 168 0.0 1.0 0.00 0.00 0.00 80 1025.6
20260509171504 57 193 0.0 1.0 0.00 0.00 0.00 80 1025.7
20260509171005 57 142 1.0 2.0 0.00 0.00 0.00 80 1025.7
20260509170004 57 153 0.0 0.0 0.00 0.00 0.00 80 1025.7
20260509165505 57 164 0.0 1.0 0.00 0.00 0.00 80 1025.7
20260509165005 57 168 0.0 1.0 0.00 0.00 0.00 80 1025.6
20260509164505 57 153 0.0 1.0 0.00 0.00 0.00 80 1025.6
20260509163005 58 152 0.0 0.0 0.00 0.00 0.00 79 1025.6
20260509161004 58 175 0.0 1.0 0.00 0.00 0.00 78 1025.7
20260509160007 58 148 0.0 1.0 0.00 0.00 0.00 78 1025.7
20260509152507 59 133 0.0 1.0 0.00 0.00 0.00 76 1025.7
20260509151007 59 157 0.0 0.0 0.00 0.00 0.00 76 1025.8
20260509150007 59 180 0.0 0.0 0.00 0.00 0.00 76 1025.7
20260509145506 59 180 0.0 1.0 0.00 0.00 0.00 76 1025.7
20260509144007 59 156 0.0 1.0 0.00 0.00 0.00 75 1025.8
20260509143007 59 145 0.0 1.0 0.00 0.00 0.00 75 1025.8
20260509142007 59 153 0.0 0.0 0.00 0.00 0.00 75 1025.7
20260509140007 59 167 0.0 1.0 0.00 0.00 0.00 74 1025.7
20260509135507 59 183 0.0 1.0 0.00 0.00 0.00 74 1025.7
20260509134507 60 152 1.0 2.0 0.00 0.00 0.00 74 1025.8
20260509133007 60 154 0.0 1.0 0.00 0.00 0.00 73 1025.8
20260509132007 60 201 0.0 0.0 0.00 0.00 0.00 73 1025.8
20260509131507 60 201 0.0 0.0 0.00 0.00 0.00 73 1025.9
20260509125506 60 137 0.0 1.0 0.00 0.00 0.00 73 1025.8
20260509125007 60 149 0.0 0.0 0.00 0.00 0.00 73 1025.8
20260509124006 60 167 0.0 2.0 0.00 0.00 0.00 72 1025.9
20260509122006 61 135 1.0 2.0 0.00 0.00 0.00 72 1025.9
20260509121006 61 154 1.0 2.0 0.00 0.00 0.00 72 1026.0
20260509120507 61 191 0.0 1.0 0.00 0.00 0.00 72 1026.0
20260509120006 61 169 1.0 2.0 0.00 0.00 0.00 72 1026.0
20260509114507 62 149 0.0 1.0 0.00 0.00 0.00 72 1025.9
20260509114007 62 169 0.0 1.0 0.00 0.00 0.00 72 1025.9
20260509112506 62 154 0.0 1.0 0.00 0.00 0.00 72 1025.8
20260509112006 62 138 0.0 1.0 0.00 0.00 0.00 71 1025.8
20260509111506 62 147 0.0 0.0 0.00 0.00 0.00 71 1025.8
20260509111006 62 147 0.0 0.0 0.00 0.00 0.00 71 1025.8
20260509110506 62 147 0.0 0.0 0.00 0.00 0.00 70 1025.8
20260509110006 62 147 0.0 0.0 0.00 0.00 0.00 70 1025.7
20260509105006 62 147 0.0 0.0 0.00 0.00 0.00 69 1025.7
20260509104506 62 147 0.0 0.0 0.00 0.00 0.00 69 1025.7
20260509104006 62 147 0.0 0.0 0.00 0.00 0.00 69 1025.7
20260509103007 62 147 0.0 0.0 0.00 0.00 0.00 69 1025.6
20260509100506 63 147 0.0 0.0 0.00 0.00 0.00 68 1025.5
20260509100006 63 147 0.0 0.0 0.00 0.00 0.00 68 1025.5
20260509094007 63 160 1.0 2.0 0.00 0.00 0.00 66 1025.3
20260509093007 63 180 0.0 1.0 0.00 0.00 0.00 67 1025.3
20260509092007 63 165 0.0 0.0 0.00 0.00 0.00 67 1025.1
20260509090506 63 171 0.0 2.0 0.00 0.00 0.00 68 1025.0
20260509085506 63 169 0.0 1.0 0.00 0.00 0.00 68 1024.8
20260509084506 63 170 1.0 2.0 0.00 0.00 0.00 67 1024.7
20260509082006 63 160 1.0 2.0 0.00 0.00 0.00 67 1024.5
20260509080506 64 178 1.0 2.0 0.00 0.00 0.00 67 1024.4
20260509075506 64 173 2.0 3.0 0.00 0.00 0.00 67 1024.2
20260509073506 64 179 2.0 3.0 0.00 0.00 0.00 67 1024.1
20260509073006 64 172 2.0 5.0 0.00 0.00 0.00 67 1024.0
20260509072506 64 164 3.0 3.0 0.00 0.00 0.00 67 1024.0
20260509071006 64 165 3.0 5.0 0.00 0.00 0.00 66 1023.8
20260509065006 65 159 5.0 7.0 0.00 0.00 0.00 65 1023.6
20260509064005 65 162 3.0 8.0 0.00 0.00 0.00 65 1023.6
20260509063006 65 158 3.0 7.0 0.00 0.00 0.00 63 1023.5
20260509062506 65 155 5.0 8.0 0.00 0.00 0.00 63 1023.5
20260509062006 65 180 4.0 12.0 0.00 0.00 0.00 63 1023.4
20260509061006 66 173 3.0 9.0 0.00 0.00 0.00 62 1023.3
20260509055506 66 174 2.0 6.0 0.00 0.00 0.00 62 1023.2
20260509054506 66 164 4.0 7.0 0.00 0.00 0.00 63 1023.1
20260509053506 66 176 5.0 9.0 0.00 0.00 0.00 62 1023.0
20260509052506 66 173 6.0 12.0 0.00 0.00 0.00 62 1023.0
20260509051506 66 169 6.0 12.0 0.00 0.00 0.00 63 1023.0
20260509050505 66 172 5.0 10.0 0.00 0.00 0.00 62 1023.0
20260509043506 66 175 6.0 13.0 0.00 0.00 0.00 60 1022.9
20260509043006 66 185 3.0 10.0 0.00 0.00 0.00 59 1022.9
20260509042506 66 175 5.0 13.0 0.00 0.00 0.00 59 1022.9
20260509041506 66 180 3.0 8.0 0.00 0.00 0.00 59 1022.9
20260509041006 66 174 2.0 8.0 0.00 0.00 0.00 59 1022.9
20260509031505 66 167 6.0 9.0 0.00 0.00 0.00 58 1023.0
20260509031006 66 159 3.0 9.0 0.00 0.00 0.00 58 1023.0
20260509030505 66 181 5.0 9.0 0.00 0.00 0.00 58 1023.1
20260509025006 67 169 5.0 8.0 0.00 0.00 0.00 57 1023.2
20260509023005 68 173 5.0 12.0 0.00 0.00 0.00 55 1023.5
20260509021506 67 172 4.0 9.0 0.00 0.00 0.00 55 1023.7
20260509021006 67 159 2.0 7.0 0.00 0.00 0.00 54 1023.7
20260509020505 67 160 5.0 8.0 0.00 0.00 0.00 56 1023.8
20260509020005 67 160 3.0 8.0 0.00 0.00 0.00 55 1023.9
20260509015505 67 163 2.0 6.0 0.00 0.00 0.00 55 1023.9
20260509015005 67 185 3.0 9.0 0.00 0.00 0.00 55 1024.0
20260509013505 69 164 0.0 6.0 0.00 0.00 0.00 52 1024.1
20260509012005 69 120 1.0 2.0 0.00 0.00 0.00 52 1024.2
20260509011005 68 124 1.0 3.0 0.00 0.00 0.00 54 1024.1
20260509010506 69 173 2.0 2.0 0.00 0.00 0.00 54 1024.2
20260509005006 69 48 1.0 2.0 0.00 0.00 0.00 53 1024.4
20260509004005 69 71 0.0 1.0 0.00 0.00 0.00 52 1024.4
20260509003505 68 161 1.0 2.0 0.00 0.00 0.00 53 1024.4
20260509002505 67 133 1.0 2.0 0.00 0.00 0.00 55 1024.4
20260509002006 66 103 1.0 2.0 0.00 0.00 0.00 56 1024.5
20260509001005 66 125 1.0 3.0 0.00 0.00 0.00 56 1024.5
20260509000506 65 163 1.0 3.0 0.00 0.00 0.00 57 1024.5
20260508235005 65 156 0.0 2.0 0.00 0.00 0.00 57 1024.5
20260508234005 65 118 1.0 3.0 0.00 0.00 0.00 58 1024.6
20260508233505 65 109 1.0 3.0 0.00 0.00 0.00 59 1024.6
20260508233005 64 90 1.0 3.0 0.00 0.00 0.00 60 1024.5
20260508231505 64 151 1.0 2.0 0.00 0.00 0.00 60 1024.5
20260508231005 63 107 1.0 3.0 0.00 0.00 0.00 61 1024.6
20260508230005 62 214 1.0 3.0 0.00 0.00 0.00 63 1024.5
20260508225505 62 161 1.0 2.0 0.00 0.00 0.00 64 1024.4